Weather History for KPIH - July, 2013

Change the Weather History Date:

Thursday, July 4, 2013

  Actual Average Record
Temperature  
Mean Temperature 81 °F 68 °F  
Max Temperature 94 °F 85 °F 100 °F (2001)
Min Temperature 68 °F 51 °F 39 °F (1983)
Degree Days  
Heating Degree Days 0 1  
Month to date heating degree days 0 5  
Since 1 June heating degree days 90 136  
Since 1 July heating degree days 0 5  
Cooling Degree Days 16 4  
Month to date cooling degree days 56 15  
Year to date cooling degree days 158 66  
Since 1 June cooling degree days 149 61  
Growing Degree Days 33 (Base 50)    
Moisture  
Dew Point 51 °F    
Average Humidity 39    
Maximum Humidity 61    
Minimum Humidity 17    
Precipitation  
Precipitation T in 0.02 in 1.33 in (2009)
Month to date precipitation T 0.08  
Year to date precipitation 3.55 6.90  
Snow  
Snow 0.00 in - - ()
Month to date snowfall 0.0  
Since 1 June snowfall 0.0  
Since 1 July snowfall 0.0  
Snow Depth 0.00 in    
Sea Level Pressure  
Sea Level Pressure 29.79 in    
Wind  
Wind Speed 12 mph (SW)    
Max Wind Speed 30 mph    
Max Gust Speed 37 mph    
Visibility 10 miles    
Events Rain    
T = Trace of Precipitation, MM = Missing Value Source: NWS Daily Summary

Daily Weather History Graph

Daily Weather History Graph

Search for Another Location

Airport or City:

Trip Planner

Search our weather history database for the weather conditions in past years. The results will help you decide how hot, cold, wet, or windy it might be!

Date:

Astronomy

Jul. 04, 2013 Rise Set
Actual Time 5:57 AM MDT 9:12 PM MDT
Civil Twilight 5:22 AM MDT 9:46 PM MDT
Nautical Twilight 4:37 AM MDT 10:31 PM MDT
Astronomical Twilight 3:42 AM MDT 11:26 PM MDT
Moon 3:18 AM MDT (7/4) 6:18 PM MDT (7/4)
Length of Visible Light 16h 24m
Length of Day
15h 15m
Waning Crescent, 11% of the Moon is Illuminated
Jul 4
Waning Crescent
Jul 8
New
Jul 15
First Quarter
Jul 22
Full
Jul 29
Last Quarter

Hourly Weather History & Observations

Time (MDT) Temp. Heat Index Dew Point Humidity Pressure Visibility Wind Dir Wind Speed Gust Speed Precip Events Conditions
12:53 AM 72.0 °F - 54.0 °F 53% 29.85 in 10.0 mi Calm Calm - N/A   Partly Cloudy
1:53 AM 70.0 °F - 55.0 °F 59% 29.83 in 10.0 mi ESE 3.5 mph - N/A   Clear
2:53 AM 73.9 °F - 53.1 °F 48% 29.82 in 10.0 mi East 8.1 mph - N/A   Partly Cloudy
3:53 AM 73.0 °F - 53.1 °F 49% 29.83 in 10.0 mi North 9.2 mph 20.7 mph 0.00 in Rain Light Rain
4:53 AM 69.1 °F - 57.0 °F 65% 29.83 in 10.0 mi Variable 4.6 mph - 0.00 in   Clear
5:53 AM 73.0 °F - 52.0 °F 48% 29.84 in 10.0 mi SSW 13.8 mph - N/A   Mostly Cloudy
6:53 AM 75.0 °F - 51.1 °F 43% 29.86 in 10.0 mi SSW 10.4 mph - N/A   Mostly Cloudy
7:53 AM 75.9 °F - 52.0 °F 43% 29.86 in 10.0 mi South 8.1 mph - N/A   Scattered Clouds
8:53 AM 78.1 °F - 55.9 °F 46% 29.86 in 10.0 mi East 5.8 mph - N/A   Partly Cloudy
9:53 AM 82.0 °F 81.3 °F 54.0 °F 38% 29.86 in 10.0 mi West 10.4 mph - N/A   Partly Cloudy
10:53 AM 82.9 °F 81.8 °F 53.1 °F 36% 29.84 in 10.0 mi West 12.7 mph - N/A   Partly Cloudy
11:53 AM 84.9 °F 83.3 °F 54.0 °F 34% 29.84 in 10.0 mi WSW 10.4 mph - N/A   Partly Cloudy
12:53 PM 89.1 °F - 51.1 °F 27% 29.82 in 10.0 mi West 13.8 mph - N/A   Partly Cloudy
1:53 PM 90.0 °F - 50.0 °F 25% 29.80 in 10.0 mi West 11.5 mph - N/A   Scattered Clouds
2:53 PM 91.9 °F - 50.0 °F 24% 29.77 in 10.0 mi West 12.7 mph - N/A   Scattered Clouds
3:53 PM 93.0 °F - 46.9 °F 20% 29.75 in 10.0 mi West 12.7 mph - N/A   Scattered Clouds
4:53 PM 93.0 °F - 43.0 °F 18% 29.71 in 10.0 mi WSW 16.1 mph - N/A   Scattered Clouds
5:53 PM 93.0 °F - 44.1 °F 18% 29.68 in 10.0 mi SW 17.3 mph - N/A   Scattered Clouds
6:53 PM 91.0 °F - 48.0 °F 23% 29.66 in 10.0 mi SW 16.1 mph 21.9 mph N/A   Clear
7:53 PM 87.1 °F - 50.0 °F 28% 29.66 in 10.0 mi WSW 13.8 mph - N/A   Clear
8:53 PM 82.0 °F - 52.0 °F 35% 29.68 in 10.0 mi SW 13.8 mph - N/A   Clear
9:53 PM 77.0 °F - 50.0 °F 39% 29.71 in 7.0 mi WSW 19.6 mph 32.2 mph N/A   Scattered Clouds
10:00 PM 75.2 °F - 48.2 °F 38% 29.89 in 6.0 mi WSW 20.7 mph 26.5 mph N/A   Haze
10:32 PM 73.4 °F - 48.2 °F 41% 29.89 in 9.0 mi SSW 16.1 mph - N/A   Scattered Clouds
10:53 PM 73.9 °F - 48.0 °F 40% 29.73 in 10.0 mi SW 19.6 mph - N/A   Clear
11:53 PM 75.9 °F - 46.0 °F 35% 29.73 in 10.0 mi SW 21.9 mph 28.8 mph N/A   Clear